Trieste, Italy

9:49 PM CEST on May 25, 2018 (GMT +0200)
Trieste

Weather History for LIVT - July, 2013

Change the Weather History Date:

Saturday, July 6, 2013

  Actual Average Record
Temperature  
Mean Temperature 80 °F -  
Max Temperature 89 °F 83 °F 90 °F (2015)
Min Temperature 72 °F 68 °F 62 °F (2005)
Cooling Degree Days 16    
Growing Degree Days 30 (Base 50)    
Moisture  
Dew Point 60 °F    
Average Humidity 48    
Maximum Humidity 65    
Minimum Humidity 30    
Precipitation  
Precipitation 0.00 in 0.10 in - ()
Sea Level Pressure  
Sea Level Pressure 30.14 in    
Wind  
Wind Speed 9 mph ()    
Max Wind Speed 14 mph    
Max Gust Speed 32 mph    
Visibility 7.3 miles    
Events      
Averages and records for this station are not official NWS values.
T = Trace of Precipitation, MM = Missing Value Source: Averaged Metar Reports

Daily Weather History Graph

Daily Weather History Graph

Search for Another Location

Airport or City:

Astronomy

Jul. 06, 2013 Rise Set
Actual Time 5:22 AM CEST 8:56 PM CEST
Civil Twilight 4:45 AM CEST 9:33 PM CEST
Nautical Twilight 3:55 AM CEST 10:23 PM CEST
Astronomical Twilight 2:49 AM CEST 11:28 PM CEST
Moon 3:57 AM CEST (7/6) 7:22 PM CEST (7/6)
Length of Visible Light 16h 48m
Length of Day
15h 33m
Waning Crescent, 3% of the Moon is Illuminated
Jul 6
Waning Crescent
Jul 8
New
Jul 16
First Quarter
Jul 22
Full
Jul 29
Last Quarter

Hourly Weather History & Observations

Time (CEST) Temp. Heat Index Dew Point Humidity Pressure Visibility Wind Dir Wind Speed Gust Speed Precip Events Conditions
12:55 AM 73.4 °F - 60.8 °F 65% 30.15 in 6.2 mi NE 5.8 mph - N/A   Partly Cloudy
1:55 AM 77.0 °F - 59.0 °F 54% 30.15 in - ENE 10.4 mph - N/A   Clear
2:00 AM 76 °F - 60 °F 47% 30.17 in 12 mi ENE 10.4 mph - -   Partly Cloudy
2:55 AM 77.0 °F - 59.0 °F 54% 30.15 in - East 10.4 mph - N/A   Clear
3:55 AM 75.2 °F - 59.0 °F 57% 30.15 in - East 6.9 mph - N/A   Clear
4:55 AM 75.2 °F - 59.0 °F 57% 30.15 in - ENE 11.5 mph 26.5 mph N/A   Clear
5:55 AM 75.2 °F - 57.2 °F 53% 30.15 in - ENE 12.7 mph 26.5 mph N/A   Clear
6:55 AM 75.2 °F - 59.0 °F 57% 30.15 in - ENE 12.7 mph 25.3 mph N/A   Clear
7:55 AM 77.0 °F - 59.0 °F 54% 30.15 in 6.2 mi East 11.5 mph - N/A   Partly Cloudy
8:00 AM 78 °F - 59 °F 42% 30.16 in 12 mi East 11.5 mph - -   Scattered Clouds
8:55 AM 80.6 °F 81.5 °F 60.8 °F 51% 30.15 in 6.2 mi SSW 3.5 mph - N/A   Partly Cloudy
9:55 AM 84.2 °F 83.8 °F 59.0 °F 42% 30.15 in - East 9.2 mph 20.7 mph N/A   Clear
10:55 AM 86.0 °F 85.4 °F 59.0 °F 40% 30.15 in 6.2 mi East 9.2 mph 24.2 mph N/A   Partly Cloudy
11:55 AM 86.0 °F 85.4 °F 59.0 °F 40% 30.15 in 6.2 mi East 6.9 mph - N/A   Partly Cloudy
12:55 PM 86.0 °F 85.4 °F 59.0 °F 40% 30.15 in 6.2 mi WNW 6.9 mph - N/A   Partly Cloudy
1:55 PM 86.0 °F 85.4 °F 59.0 °F 40% 30.12 in 6.2 mi ENE 10.4 mph 32.2 mph N/A   Scattered Clouds
2:00 PM 86 °F - 59 °F 30% 30.15 in 12 mi ENE 10.4 mph - -   Partly Cloudy
2:55 PM 86.0 °F 85.4 °F 59.0 °F 40% 30.12 in 6.2 mi ENE 11.5 mph 24.2 mph N/A   Scattered Clouds
3:55 PM 84.2 °F 83.8 °F 59.0 °F 42% 30.12 in 6.2 mi East 10.4 mph 25.3 mph N/A   Partly Cloudy
4:55 PM 86.0 °F 85.4 °F 59.0 °F 40% 30.09 in 6.2 mi West 11.5 mph 28.8 mph N/A   Partly Cloudy
5:55 PM 87.8 °F 87.6 °F 60.8 °F 40% 30.09 in 6.2 mi East 12.7 mph 25.3 mph N/A   Partly Cloudy
6:55 PM 82.4 °F 82.9 °F 60.8 °F 48% 30.09 in 6.2 mi East 13.8 mph - N/A   Scattered Clouds
7:55 PM 82.4 °F 82.9 °F 60.8 °F 48% 30.12 in 6.2 mi East 12.7 mph - N/A   Scattered Clouds
8:00 PM 82 °F - 61 °F 38% 30.14 in 12 mi East 12.7 mph - -   Partly Cloudy
8:55 PM 80.6 °F 81.5 °F 60.8 °F 51% 30.12 in 6.2 mi ESE 8.1 mph - N/A   Scattered Clouds
9:55 PM 78.8 °F - 62.6 °F 57% 30.12 in 6.2 mi ENE 8.1 mph 25.3 mph N/A   Scattered Clouds
10:55 PM 80.6 °F 81.8 °F 62.6 °F 54% 30.12 in 6.2 mi SE 8.1 mph 24.2 mph N/A   Scattered Clouds
11:55 PM 78.8 °F - 62.6 °F 57% 30.12 in 6.2 mi WNW 5.8 mph - N/A   Scattered Clouds